User: anonymous   Login
Location: Carrizo Plain National Monument
(35.0903°N, 119.7316°W)
Time: 10:46:51
(UTC-07:00)
Language:

KKS-1 - Orbit

View from above orbital plane
View from above orbital plane
View from above satellite
View from above satellite

Ground track
Ground track

The orbit data is extracted from the following two-line orbital elements,

1 33499U 09002H   20101.16303714  .00000082  00000-0  20051-4 0  9990
2 33499  98.3257 313.9614 0008867 351.0954   9.0096 14.75519071602942
Epoch (UTC): 10 April 2020 03:54:46
Eccentricity: 0.0008867
inclination: 98.3257°
perigee height: 637 km
apogee height: 650 km
right ascension of ascending node: 313.9614°
argument of perigee: 351.0954°
revolutions per day: 14.75519071
mean anomaly at epoch: 9.0096°
orbit number at epoch: 60294

The dashed part of the orbit path shows where the satellite is in the earth's shadow,  

DLR